Athens, TX

5:01 PM CDT on March 26, 2017 (GMT -0500)
Athens

Weather History for KF44 - October, 2012

Change the Weather History Date:

Tuesday, October 9, 2012

  Actual Average (KTYR) Record (KTYR)
Temperature  
Mean Temperature 62 °F -  
Max Temperature 85 °F 76 °F 95 °F (1963)
Min Temperature 49 °F 56 °F 34 °F (1917)
Degree Days  
Heating Degree Days 3    
Growing Degree Days 12 (Base 50)    
Moisture  
Dew Point 56 °F    
Average Humidity 82    
Maximum Humidity 96    
Minimum Humidity 66    
Precipitation  
Precipitation 0.00 in - - ()
Sea Level Pressure  
Sea Level Pressure 30.01 in    
Wind  
Wind Speed 4 mph ()    
Max Wind Speed 14 mph    
Max Gust Speed 20 mph    
Visibility 9.9 miles    
Events      
Averages and records for this station are not official NWS values.
T = Trace of Precipitation, MM = Missing Value Source: Averaged Metar Reports

Daily Weather History Graph

Daily Weather History Graph

Search for Another Location

Airport or City:

Trip Planner

Search our weather history database for the weather conditions in past years. The results will help you decide how hot, cold, wet, or windy it might be!

Date:

Astronomy

Oct. 09, 2012 Rise Set
Actual Time 7:23 AM CDT 6:57 PM CDT
Civil Twilight 6:58 AM CDT 7:21 PM CDT
Nautical Twilight 6:30 AM CDT 7:50 PM CDT
Astronomical Twilight 6:01 AM CDT 8:18 PM CDT
Moon 1:20 AM CDT (10/9) 3:06 PM CDT (10/9)
Length of Visible Light 12h 23m
Length of Day
11h 34m
Last Quarter, 36% of the Moon is Illuminated
Oct 9
Last Quarter
Oct 15
New
Oct 21
First Quarter
Oct 29
Full
Nov 6
Last Quarter

Hourly Weather History & Observations

Time (CDT) Temp. Dew Point Humidity Pressure Visibility Wind Dir Wind Speed Gust Speed Precip Events Conditions
12:15 AM 50.4 °F 46.2 °F 86% 30.10 in 10.0 mi Calm Calm - N/A   Clear
12:35 AM 50.0 °F 46.4 °F 87% 30.09 in 10.0 mi SSE 3.5 mph - N/A   Clear
12:55 AM 49.8 °F 46.4 °F 88% 30.09 in 10.0 mi Calm Calm - N/A   Clear
1:15 AM 49.1 °F 46.4 °F 90% 30.08 in 10.0 mi ESE 3.5 mph - N/A   Clear
1:55 AM 49.1 °F 46.4 °F 90% 30.09 in 10.0 mi Calm Calm - N/A   Clear
2:15 AM 49.1 °F 46.6 °F 91% 30.09 in 10.0 mi Calm Calm - N/A   Clear
2:55 AM 49.1 °F 46.8 °F 92% 30.08 in 10.0 mi Calm Calm - N/A   Clear
3:15 AM 49.1 °F 46.8 °F 92% 30.07 in 10.0 mi Calm Calm - N/A   Clear
3:35 AM 49.3 °F 47.1 °F 92% 30.06 in 10.0 mi SE 4.6 mph - N/A   Clear
3:55 AM 49.5 °F 47.1 °F 92% 30.06 in 10.0 mi SE 3.5 mph - N/A   Clear
4:15 AM 49.5 °F 47.3 °F 92% 30.06 in 10.0 mi Calm Calm - N/A   Clear
4:35 AM 49.6 °F 47.5 °F 92% 30.06 in 10.0 mi SE 4.6 mph - N/A   Mostly Cloudy
4:55 AM 50.5 °F 48.0 °F 91% 30.06 in 10.0 mi SE 6.9 mph - N/A   Overcast
5:15 AM 51.3 °F 48.6 °F 90% 30.06 in 10.0 mi SSE 6.9 mph - N/A   Overcast
5:35 AM 51.6 °F 48.7 °F 90% 30.06 in 10.0 mi SE 6.9 mph - N/A   Overcast
5:55 AM 51.8 °F 48.7 °F 89% 30.06 in 10.0 mi SE 4.6 mph - N/A   Overcast
6:15 AM 52.0 °F 48.7 °F 89% 30.07 in 10.0 mi SE 4.6 mph - N/A   Overcast
6:35 AM 52.2 °F 48.9 °F 89% 30.07 in 10.0 mi SE 5.8 mph - N/A   Overcast
6:55 AM 52.3 °F 48.9 °F 88% 30.07 in 10.0 mi SE 5.8 mph - N/A   Overcast
7:15 AM 52.3 °F 49.1 °F 89% 30.07 in 10.0 mi SE 4.6 mph - N/A   Overcast
7:35 AM 52.5 °F 49.1 °F 88% 30.08 in 10.0 mi ESE 3.5 mph - N/A   Overcast
7:55 AM 52.7 °F 49.3 °F 88% 30.08 in 10.0 mi Calm Calm - N/A   Overcast
8:15 AM 53.1 °F 49.5 °F 88% 30.08 in 10.0 mi SE 4.6 mph - N/A   Overcast
8:35 AM 53.8 °F 49.8 °F 86% 30.08 in 10.0 mi SSE 5.8 mph - N/A   Overcast
8:55 AM 54.3 °F 50.0 °F 85% 30.08 in 10.0 mi SE 5.8 mph - N/A   Overcast
9:15 AM 55.0 °F 50.4 °F 84% 30.07 in 10.0 mi SE 4.6 mph - N/A   Overcast
9:35 AM 55.8 °F 50.7 °F 83% 30.08 in 10.0 mi SE 5.8 mph - N/A   Overcast
9:55 AM 56.7 °F 51.1 °F 82% 30.08 in 10.0 mi SSE 6.9 mph - N/A   Overcast
10:15 AM 57.6 °F 51.3 °F 79% 30.08 in 10.0 mi SE 6.9 mph - N/A   Overcast
10:35 AM 58.5 °F 51.6 °F 78% 30.08 in 10.0 mi SSE 9.2 mph - N/A   Overcast
10:55 AM 59.9 °F 52.0 °F 75% 30.07 in 10.0 mi South 9.2 mph - N/A   Overcast
11:15 AM 61.0 °F 52.9 °F 75% 30.07 in 10.0 mi South 8.1 mph - N/A   Overcast
11:35 AM 62.1 °F 53.6 °F 74% 30.06 in 10.0 mi South 6.9 mph - N/A   Overcast
11:55 AM 63.5 °F 54.5 °F 72% 30.05 in 10.0 mi South 10.4 mph - N/A   Overcast
12:15 PM 64.8 °F 55.6 °F 72% 30.04 in 10.0 mi South 10.4 mph 17.3 mph N/A   Overcast
12:35 PM 66.0 °F 56.5 °F 71% 30.03 in 10.0 mi South 12.7 mph - N/A   Overcast
12:55 PM 67.6 °F 57.4 °F 70% 30.02 in 10.0 mi South 13.8 mph 18.4 mph N/A   Overcast
1:15 PM 68.4 °F 57.9 °F 69% 29.99 in 10.0 mi South 11.5 mph 17.3 mph N/A   Mostly Cloudy
1:35 PM 70.3 °F 59.0 °F 67% 29.99 in 10.0 mi South 9.2 mph 19.6 mph N/A   Scattered Clouds
1:55 PM 70.5 °F 59.2 °F 67% 29.97 in 10.0 mi SSW 10.4 mph 17.3 mph N/A   Overcast
2:15 PM 70.9 °F 59.4 °F 67% 29.96 in 10.0 mi South 11.5 mph 19.6 mph N/A   Overcast
2:35 PM 70.9 °F 59.7 °F 68% 29.94 in 10.0 mi South 12.7 mph 18.4 mph N/A   Overcast
2:55 PM 71.2 °F 60.1 °F 68% 29.94 in 10.0 mi SSW 6.9 mph 18.4 mph N/A   Overcast
3:15 PM 72.0 °F 60.6 °F 67% 29.93 in 10.0 mi South 10.4 mph - N/A   Overcast
3:35 PM 72.5 °F 61.2 °F 67% 29.93 in 10.0 mi South 11.5 mph - N/A   Overcast
3:55 PM 73.8 °F 61.9 °F 66% 29.92 in 10.0 mi South 11.5 mph 18.4 mph N/A   Overcast
4:15 PM 73.6 °F 62.2 °F 68% 29.92 in 10.0 mi South 5.8 mph - N/A   Overcast
4:35 PM 74.5 °F 63.0 °F 67% 29.91 in 10.0 mi South 8.1 mph - N/A   Overcast
4:55 PM 74.8 °F 63.3 °F 67% 29.91 in 10.0 mi SSW 5.8 mph - N/A   Overcast
5:15 PM 75.2 °F 63.5 °F 67% 29.90 in 10.0 mi South 6.9 mph - N/A   Overcast
5:35 PM 75.6 °F 63.7 °F 66% 29.90 in 10.0 mi South 6.9 mph - N/A   Mostly Cloudy
5:55 PM 75.4 °F 63.9 °F 67% 29.89 in 10.0 mi South 6.9 mph - N/A   Mostly Cloudy
6:15 PM 75.0 °F 64.0 °F 69% 29.89 in 10.0 mi South 5.8 mph - N/A   Scattered Clouds
6:35 PM 74.3 °F 64.2 °F 71% 29.90 in 10.0 mi Calm Calm - N/A   Clear
6:55 PM 72.9 °F 64.4 °F 75% 29.90 in 10.0 mi Calm Calm - N/A   Clear
7:15 PM 71.2 °F 64.4 °F 79% 29.90 in 10.0 mi Calm Calm - N/A   Clear
7:35 PM 69.8 °F 64.4 °F 83% 29.91 in 10.0 mi Calm Calm - N/A   Scattered Clouds
7:55 PM 68.5 °F 64.2 °F 86% 29.92 in 10.0 mi Calm Calm - N/A   Mostly Cloudy
8:15 PM 67.5 °F 64.0 °F 89% 29.92 in 10.0 mi Calm Calm - N/A   Scattered Clouds
8:35 PM 66.7 °F 63.7 °F 90% 29.94 in 10.0 mi Calm Calm - N/A   Scattered Clouds
8:55 PM 65.7 °F 63.3 °F 92% 29.94 in 10.0 mi Calm Calm - N/A   Clear
9:15 PM 64.6 °F 62.8 °F 94% 29.94 in 10.0 mi Calm Calm - N/A   Clear
9:35 PM 64.2 °F 62.2 °F 93% 29.95 in 10.0 mi Calm Calm - N/A   Clear
9:55 PM 64.2 °F 62.6 °F 94% 29.95 in 10.0 mi Calm Calm - N/A   Clear
10:15 PM 63.1 °F 61.7 °F 95% 29.96 in 10.0 mi Calm Calm - N/A   Clear
10:35 PM 63.0 °F 61.7 °F 96% 29.96 in 7.0 mi Calm Calm - N/A   Clear
10:55 PM 62.8 °F 61.3 °F 95% 29.97 in 10.0 mi Calm Calm - N/A   Clear
11:15 PM 63.0 °F 61.3 °F 94% 29.98 in 10.0 mi Calm Calm - N/A   Clear
11:35 PM 62.6 °F 61.5 °F 96% 29.99 in 7.0 mi Calm Calm - N/A   Clear
11:55 PM 62.2 °F 61.0 °F 96% 29.99 in 10.0 mi Calm Calm - N/A   Clear